Total_Precipitation_Accumulation
0.11 0.28 0.63 1.04 1.81 1.95 1.51 0.88 0.68 0.54 0.54 0.57 0.58 0.59 0.66 0.87 1.26 1.90 1.62 1.08 0.61 0.51 0.65 0.93 1.20 1.21 1.41 1.46 1.35 1.35 1.28 1.28 1.29 1.28 1.32 1.40 1.48 1.52 1.57 1.61 1.69 1.92 2.01 1.84 1.73 1.83 1.94 1.96 2.07
0.25 0.48 0.82 1.42 2.02 1.77 1.32 0.76 0.57 0.44 0.44 0.46 0.42 0.49 0.68 0.84 0.73 0.96 1.24 1.00 0.54 0.47 0.45 0.51 0.89 1.17 1.40 1.44 1.36 1.31 1.28 1.29 1.25 1.36 1.35 1.35 1.50 1.64 1.70 1.60 1.62 1.73 1.74 1.67 1.68 1.63 1.88 1.99 1.96
0.37 0.62 0.98 1.42 1.27 1.15 0.97 0.63 0.50 0.39 0.47 0.63 0.55 0.50 0.74 0.97 0.80 0.93 1.01 0.67 0.49 0.45 0.40 0.56 0.86 1.07 1.26 1.35 1.29 1.21 1.29 1.39 1.37 1.32 1.23 1.30 1.38 1.57 1.63 1.60 1.63 1.64 1.69 1.69 1.72 1.63 1.92 1.98 1.90
0.39 0.64 0.87 0.85 0.55 0.47 0.51 0.51 0.49 0.51 0.71 0.82 0.71 0.71 0.84 0.85 0.82 0.85 0.74 0.57 0.50 0.57 0.50 0.67 0.97 1.02 1.13 1.19 1.17 1.19 1.31 1.43 1.41 1.35 1.31 1.40 1.43 1.53 1.48 1.48 1.53 1.47 1.61 1.71 1.79 1.80 1.95 1.92 1.85
0.35 0.64 0.89 0.55 0.30 0.30 0.31 0.35 0.50 0.57 0.82 0.90 0.69 0.89 1.19 1.11 0.85 0.78 0.65 0.62 0.60 0.71 0.78 0.87 1.06 1.04 1.07 1.12 1.20 1.27 1.32 1.36 1.43 1.38 1.28 1.35 1.39 1.44 1.43 1.43 1.44 1.39 1.53 1.62 1.78 1.93 2.00 1.97 2.04
0.40 0.55 0.59 0.38 0.23 0.20 0.23 0.30 0.45 0.56 0.78 0.86 0.75 1.12 1.56 1.52 1.22 1.06 0.95 1.03 0.98 1.06 1.10 1.16 1.24 1.20 1.19 1.24 1.36 1.42 1.36 1.32 1.39 1.38 1.32 1.25 1.32 1.34 1.30 1.31 1.30 1.26 1.41 1.57 1.76 1.93 1.93 1.97 2.08
0.35 0.40 0.35 0.21 0.15 0.16 0.22 0.28 0.46 0.62 0.79 1.01 0.99 1.26 1.67 1.92 1.61 1.35 1.29 1.35 1.42 1.42 1.44 1.35 1.27 1.22 1.28 1.43 1.53 1.47 1.36 1.37 1.46 1.45 1.35 1.28 1.32 1.26 1.15 1.16 1.26 1.24 1.38 1.60 1.82 1.86 1.86 1.89 2.06
0.23 0.20 0.20 0.12 0.08 0.13 0.19 0.27 0.41 0.61 0.86 0.99 1.01 1.19 1.46 1.59 1.50 1.55 1.66 1.75 1.91 1.82 1.69 1.49 1.31 1.27 1.15 1.21 1.40 1.40 1.39 1.48 1.54 1.52 1.47 1.52 1.48 1.31 1.30 1.26 1.36 1.32 1.44 1.55 1.63 1.73 1.80 1.85 2.00
0.15 0.14 0.13 0.09 0.05 0.10 0.18 0.34 0.47 0.52 0.68 1.02 1.24 1.09 1.01 1.17 1.53 1.83 2.27 2.34 2.43 2.23 1.81 1.45 1.36 1.40 1.32 1.22 1.24 1.61 1.70 1.72 1.77 1.89 1.94 2.09 2.09 1.69 1.67 1.42 1.58 1.61 1.69 1.72 1.85 1.94 2.04 2.21 2.16
0.09 0.10 0.09 0.05 0.04 0.06 0.18 0.41 0.56 0.68 1.02 1.37 1.55 1.35 1.13 1.17 1.69 2.09 2.39 2.58 2.24 2.23 2.16 1.84 1.58 1.47 1.49 1.38 1.54 2.12 2.15 2.15 2.38 2.62 2.51 2.64 2.45 2.16 1.55 1.55 1.97 2.02 2.14 2.29 2.57 2.76 2.48 2.41 2.34
0.05 0.05 0.05 0.04 0.04 0.08 0.21 0.24 0.32 0.60 1.24 1.64 1.84 1.49 1.26 1.40 1.81 2.35 2.58 2.50 2.21 2.18 2.07 2.11 1.94 1.78 1.75 1.89 1.85 2.09 2.42 2.53 2.65 2.65 2.63 2.75 2.28 1.91 1.72 1.98 2.41 2.42 2.49 2.63 2.87 3.03 2.48 2.59 3.21
0.04 0.03 0.03 0.03 0.04 0.06 0.13 0.21 0.36 0.67 1.17 1.44 1.34 1.19 1.23 1.48 1.77 2.39 2.79 2.67 2.51 2.44 2.30 2.54 2.46 2.40 2.41 2.25 2.23 2.06 2.07 2.16 2.25 2.36 2.28 2.40 2.44 2.32 2.33 2.44 2.52 2.65 2.84 3.13 2.96 3.11 3.07 3.26 3.30
0.03 0.03 0.03 0.04 0.04 0.07 0.11 0.22 0.34 0.59 0.87 0.94 0.85 1.01 1.48 1.61 1.92 2.57 3.13 3.09 3.01 2.89 2.94 3.05 3.10 3.23 3.05 2.81 2.65 2.16 2.16 2.12 2.04 2.06 2.03 2.25 2.56 2.63 2.77 2.56 2.67 2.45 2.56 2.91 3.22 3.26 3.46 3.72 3.67
0.03 0.04 0.05 0.07 0.09 0.09 0.14 0.25 0.40 0.79 0.80 0.73 0.87 1.19 1.58 2.00 2.18 2.63 3.34 3.57 3.49 3.48 3.70 3.66 3.66 3.70 3.53 3.15 2.89 2.57 2.24 2.30 2.08 2.06 2.08 2.56 2.82 2.83 2.92 2.78 2.76 2.49 2.50 2.81 3.17 3.26 3.60 3.69 3.75
0.05 0.07 0.13 0.15 0.14 0.14 0.22 0.59 0.72 0.85 0.82 0.82 1.05 1.31 1.80 2.41 2.66 2.93 3.41 3.77 3.90 4.15 4.34 4.52 4.40 4.09 4.17 3.82 3.07 2.55 2.27 2.12 2.23 2.37 2.40 2.69 2.81 3.04 3.20 3.12 2.75 2.55 2.65 2.88 2.90 3.07 3.57 3.46 3.43
0.09 0.13 0.31 0.27 0.16 0.19 0.33 0.86 0.89 0.89 0.92 1.01 1.23 1.58 1.94 2.42 2.55 2.80 3.25 3.81 4.32 4.69 5.12 5.32 4.90 4.79 4.82 4.50 3.89 3.31 2.96 2.79 2.82 2.81 2.63 2.44 2.61 2.73 2.98 2.75 2.38 2.47 2.70 2.90 2.92 2.92 3.31 3.49 3.53
0.14 0.18 0.29 0.28 0.19 0.20 0.31 0.74 0.74 0.63 0.97 1.37 1.62 1.77 1.93 2.10 2.27 2.45 2.83 3.55 4.37 4.96 5.70 6.09 6.30 5.80 5.39 4.84 4.40 3.87 3.56 3.38 3.11 2.83 2.57 2.27 2.04 1.94 2.24 2.21 2.15 2.17 2.45 2.52 2.23 2.49 2.82 3.07 3.22
0.13 0.19 0.26 0.32 0.23 0.24 0.38 0.66 0.76 0.66 0.95 1.31 1.37 1.64 1.73 1.76 1.97 2.36 2.88 3.43 4.30 5.07 5.79 6.20 6.45 5.92 5.20 4.90 4.88 4.53 3.96 3.51 3.13 2.79 2.58 2.17 1.98 1.76 2.00 2.03 1.87 1.82 2.03 2.12 2.25 2.59 2.68 2.60 2.68
0.08 0.15 0.24 0.25 0.23 0.32 0.50 0.75 0.90 0.87 0.91 1.05 1.17 1.36 1.39 1.44 1.71 2.19 2.83 3.51 4.29 5.42 6.09 6.23 5.98 5.29 4.79 4.38 4.13 3.86 3.61 3.34 2.86 2.48 2.24 2.12 1.98 1.90 2.12 1.95 2.00 1.85 1.89 1.95 2.00 2.25 2.36 2.16 2.33
0.07 0.13 0.22 0.22 0.18 0.22 0.47 0.85 0.98 0.99 1.04 1.02 1.09 1.17 1.10 1.26 1.60 2.19 2.95 3.77 4.44 4.99 5.35 5.44 5.07 4.32 3.84 3.60 3.53 3.27 3.08 2.77 2.56 2.33 2.29 1.98 1.89 1.89 1.80 1.99 1.82 1.73 1.94 1.92 1.99 2.21 2.21 1.99 2.15
0.09 0.11 0.18 0.22 0.19 0.22 0.46 1.01 1.24 1.13 1.09 1.07 0.97 0.94 1.04 1.28 1.81 2.55 3.35 4.11 4.45 4.47 4.26 3.96 3.78 3.40 3.28 3.23 3.04 2.83 2.80 2.54 2.38 2.17 2.08 1.78 1.61 1.62 1.68 1.68 1.60 1.70 1.61 1.81 1.96 2.06 2.26 2.26 2.03
0.10 0.09 0.07 0.10 0.16 0.40 0.55 1.11 1.30 1.28 1.21 1.06 1.04 1.04 1.15 1.43 1.95 2.64 3.17 3.40 3.55 3.49 3.20 3.01 2.94 2.86 2.81 2.73 2.63 2.34 2.21 2.20 2.05 1.95 1.96 1.85 1.63 1.61 1.62 1.57 1.67 1.69 1.55 1.82 1.57 1.72 2.05 2.23 2.06
0.06 0.06 0.06 0.11 0.23 0.43 0.60 0.95 1.32 1.30 1.37 0.94 0.81 0.90 0.99 1.23 1.52 1.71 1.92 2.08 2.21 2.23 2.38 2.47 2.60 2.72 2.63 2.57 2.55 2.47 2.19 2.15 2.12 2.11 2.21 2.08 1.86 1.66 1.46 1.54 1.73 1.76 1.62 1.65 1.64 1.85 1.86 1.94 1.98
0.05 0.07 0.14 0.25 0.42 0.80 0.82 0.99 1.34 1.33 1.23 0.83 0.62 0.63 0.79 0.90 0.96 1.06 1.15 1.26 1.49 1.54 1.74 1.95 2.10 2.26 2.43 2.46 2.30 2.21 2.16 2.21 2.25 2.19 2.02 1.83 1.69 1.59 1.47 1.57 1.84 1.83 1.79 1.74 1.70 1.73 1.77 1.95 2.07
0.06 0.13 0.37 0.73 1.07 1.14 0.72 0.84 1.24 1.18 0.86 0.58 0.49 0.46 0.48 0.66 0.81 0.94 1.04 1.13 1.33 1.28 1.35 1.58 1.66 1.69 1.85 1.90 1.87 1.93 2.07 2.12 2.00 1.89 1.81 1.65 1.41 1.39 1.46 1.54 1.76 1.76 1.78 1.70 1.87 1.89 1.81 1.93 2.00
0.08 0.12 0.25 0.45 0.56 0.76 0.81 1.30 1.48 0.88 0.60 0.46 0.42 0.40 0.41 0.57 0.71 0.81 0.80 0.88 1.00 0.96 1.08 1.23 1.34 1.41 1.47 1.59 1.71 1.67 1.82 1.83 1.74 1.82 1.69 1.55 1.33 1.23 1.26 1.38 1.45 1.53 1.58 1.57 1.95 1.82 1.85 1.94 1.86
0.08 0.08 0.11 0.17 0.25 0.57 0.99 1.36 1.31 0.80 0.61 0.45 0.42 0.44 0.46 0.44 0.57 0.64 0.57 0.58 0.71 0.82 0.94 1.05 1.13 1.25 1.28 1.42 1.51 1.48 1.57 1.67 1.72 1.72 1.61 1.43 1.44 1.29 1.33 1.40 1.59 1.71 1.75 1.79 2.02 1.95 1.91 2.04 1.86
0.09 0.11 0.13 0.15 0.25 0.49 0.89 1.40 1.66 1.22 0.69 0.51 0.50 0.49 0.54 0.46 0.50 0.53 0.53 0.49 0.56 0.71 0.96 1.03 1.04 1.16 1.20 1.30 1.31 1.19 1.36 1.49 1.64 1.58 1.50 1.46 1.49 1.44 1.56 1.62 1.75 1.85 1.79 1.78 1.95 1.94 2.02 2.10 1.99
0.11 0.11 0.14 0.15 0.18 0.31 0.73 1.06 0.94 0.92 0.67 0.67 0.64 0.57 0.56 0.51 0.54 0.53 0.51 0.51 0.49 0.60 0.81 0.86 1.00 1.11 1.17 1.24 1.34 1.39 1.40 1.33 1.45 1.47 1.44 1.50 1.55 1.53 1.59 1.70 1.83 1.84 1.88 1.97 2.05 1.90 1.98 2.09 2.26
0.13 0.15 0.15 0.17 0.18 0.21 0.36 0.58 0.59 0.74 0.70 0.71 0.77 0.69 0.63 0.48 0.44 0.47 0.51 0.56 0.54 0.55 0.66 0.79 0.95 1.11 1.17 1.24 1.37 1.45 1.58 1.53 1.47 1.44 1.48 1.53 1.66 1.74 1.72 1.80 1.86 1.74 1.78 1.98 2.05 2.01 2.01 2.05 2.10